This is the latest recevied weather packets stored in our database for station/object W3BRL. If no packets are shown the sender has not sent any weather packets the latest 1 day(s).
| Time | Temp. | Humidity | Pressure | Rain* | Wind** | Luminosity | Snow |
|---|---|---|---|---|---|---|---|
| 1777989452 | 20.56° C | 48% | 1006.9 hPa | 0 mm | 6.71 m/s, 236° | 559 W/m² | - |
| 1777989148 | 20.56° C | 49% | 1007.3 hPa | 0 mm | 5.81 m/s, 198° | 543 W/m² | - |
| 1777988844 | 20.56° C | 50% | 1007.3 hPa | 0 mm | 5.81 m/s, 215° | 383 W/m² | - |
| 1777988542 | 20.56° C | 50% | 1007.3 hPa | 0 mm | 4.47 m/s, 206° | 323 W/m² | - |
| 1777988238 | 20.56° C | 50% | 1007.3 hPa | 0 mm | 1.79 m/s, 218° | 367 W/m² | - |
| 1777987935 | 20.56° C | 49% | 1007.2 hPa | 0 mm | 5.36 m/s, 202° | 524 W/m² | - |
| 1777987630 | 20.56° C | 51% | 1007.1 hPa | 0 mm | 2.68 m/s, 235° | 520 W/m² | - |
| 1777987328 | 20.56° C | 51% | 1007.2 hPa | 0 mm | 2.68 m/s, 213° | 479 W/m² | - |
| 1777987025 | 20° C | 51% | 1007.1 hPa | 0 mm | 3.58 m/s, 261° | 470 W/m² | - |
| 1777986723 | 20° C | 53% | 1007.2 hPa | 0 mm | 2.24 m/s, 217° | 358 W/m² | - |
| 1777986420 | 20° C | 53% | 1007.1 hPa | 0 mm | 3.13 m/s, 253° | 514 W/m² | - |
| 1777986119 | 19.44° C | 55% | 1007.1 hPa | 0 mm | 2.68 m/s, 152° | 410 W/m² | - |
| 1777985815 | 19.44° C | 56% | 1006.9 hPa | 0 mm | 2.68 m/s, 154° | 372 W/m² | - |
| 1777985512 | 18.89° C | 56% | 1006.9 hPa | 0 mm | 5.36 m/s, 174° | 355 W/m² | - |
| 1777985209 | 18.89° C | 57% | 1006.9 hPa | 0 mm | 2.24 m/s, 192° | 328 W/m² | - |
| 1777984905 | 18.33° C | 58% | 1006.8 hPa | 0 mm | 2.68 m/s, 196° | 315 W/m² | - |
| 1777984601 | 18.33° C | 58% | 1006.9 hPa | 0 mm | 2.24 m/s, 209° | 297 W/m² | - |
| 1777984298 | 18.33° C | 59% | 1007.3 hPa | 0 mm | 2.68 m/s, 200° | 153 W/m² | - |
| 1777983994 | 18.33° C | 59% | 1007.2 hPa | 0 mm | 2.24 m/s, 185° | 145 W/m² | - |
| 1777983692 | 18.33° C | 59% | 1007.3 hPa | 0 mm | 1.79 m/s, 170° | 126 W/m² | - |
| 1777983388 | 18.33° C | 59% | 1007.2 hPa | 0 mm | 3.13 m/s, 162° | 270 W/m² | - |
| 1777983085 | 18.33° C | 58% | 1006.9 hPa | 0 mm | 4.02 m/s, 169° | 195 W/m² | - |
| 1777982782 | 18.33° C | 59% | 1007.1 hPa | 0 mm | 3.13 m/s, 207° | 273 W/m² | - |
| 1777982478 | 17.78° C | 59% | 1007.2 hPa | 0 mm | 3.58 m/s, 194° | 230 W/m² | - |
| 1777982178 | 17.78° C | 60% | 1007.3 hPa | 0 mm | 2.24 m/s, 215° | 197 W/m² | - |
* Rain latest hour (hover to see other rain measurements)
** Current wind speed in m/s (hover to see current wind gust speed)